Tracking 21605 objects as of 26-Oct-2020
HD Live streaming from Space Station
objects crossing your sky now

USA 17

Track USA 17 now!
10-day predictions
USA 17 is classified as:


NORAD ID: 16625
Int'l Code: 1986-014F
Perigee: 398.2 km
Apogee: 1,782.7 km
Inclination: 63.3 °
Period: 106.9 minutes
Semi major axis: 7461 km
RCS: Unknown
Launch date: February 9, 1986
Source: United States (US)
Launch site: AIR FORCE WESTERN TEST RANGE (AFWTR)
aabbcc
Your satellite tracking list
Your tracking list is empty




NASA's NSSDC Master Catalog

Two Line Element Set (TLE):
1 16625U 86014F   20299.93950739 +.00001252 +00000-0 +12590-3 0  9996
2 16625 063.3004 213.8583 0927759 077.9498 292.3840 13.47011428063021
Source of the keplerian elements: AFSPC